Temperature
19 18 18 18 17 17 18 19 19 19 20 20 20 20 19 19 19 19 18 18 18 18 18 18 18 18 18 18 18 18 18 18 18 18 18 18 18 18 18 18 18 18 18 18 18 18 18 18 18
19 18 18 18 17 18 19 19 19 20 20 20 20 19 19 18 18 18 18 18 18 18 18 18 18 18 18 18 18 18 18 18 18 18 18 18 18 18 18 18 18 18 18 18 18 18 18 18 18
18 18 18 17 18 18 19 19 19 20 20 20 19 19 19 18 19 19 18 18 18 18 18 18 18 18 18 18 18 18 18 18 18 18 18 17 17 17 17 17 17 18 18 18 18 18 18 18 18
18 18 18 17 19 19 19 19 19 20 20 20 19 18 18 18 19 19 18 18 18 18 18 18 18 18 18 17 17 17 17 17 17 17 17 17 17 17 17 17 17 17 17 17 17 17 17 18 18
18 18 17 18 19 19 19 19 19 20 20 20 19 18 18 18 19 19 18 18 18 18 18 18 17 17 17 17 17 17 17 17 17 17 17 17 17 17 17 17 17 17 17 17 17 17 17 17 17
18 17 17 18 19 19 19 20 20 20 20 20 19 18 18 18 18 18 18 18 18 18 18 17 17 17 17 17 17 17 17 16 16 16 16 16 16 16 16 16 16 16 16 16 17 17 17 17 17
18 17 18 18 18 19 20 20 19 19 19 19 20 18 18 18 18 18 18 18 18 18 18 17 17 17 17 17 17 16 16 16 16 16 16 16 16 16 16 16 16 16 16 16 16 16 17 17 17
19 17 18 18 18 19 19 20 20 20 20 20 20 18 18 19 18 18 18 18 18 18 17 17 17 17 17 17 16 16 16 16 16 16 16 16 15 15 15 15 15 15 15 15 16 16 16 16 17
18 17 17 18 18 19 19 19 20 20 20 20 20 20 20 19 18 18 18 18 18 18 17 17 17 17 17 17 16 16 16 16 16 15 15 15 15 15 15 15 15 15 15 15 15 15 16 16 16
18 17 18 19 18 18 19 19 20 20 19 19 19 20 19 19 18 18 18 18 18 18 18 17 17 17 17 16 16 16 16 16 15 15 15 15 15 15 15 15 15 15 15 15 15 15 15 16 16
18 17 18 18 19 19 19 19 20 19 19 20 20 20 19 19 19 19 19 18 18 18 18 17 17 17 17 16 16 16 16 16 15 15 15 15 15 14 14 14 14 14 14 15 15 15 15 15 15
18 17 18 19 19 19 19 20 19 20 21 21 21 20 20 19 19 19 19 19 18 18 18 17 17 17 17 16 16 16 16 15 15 15 15 15 14 14 14 14 14 14 14 14 14 15 15 15 15
18 18 19 19 19 19 20 19 19 20 21 21 21 20 20 20 20 19 19 19 18 18 18 18 17 17 17 16 16 16 15 15 15 15 15 14 14 14 14 14 14 14 14 14 14 14 15 15 15
18 18 18 19 19 19 19 19 20 20 21 21 20 20 20 20 20 19 19 19 18 18 18 18 17 17 17 16 16 16 15 15 15 15 14 14 14 14 14 14 14 14 14 14 14 14 14 15 15
18 18 18 18 18 19 19 19 19 20 20 20 20 20 20 20 20 19 19 19 19 18 18 18 17 17 16 16 16 15 15 15 15 14 14 14 14 14 14 14 14 14 14 14 14 14 14 14 15
18 18 18 18 18 19 19 19 19 20 20 20 20 20 20 20 20 20 19 19 19 19 18 18 17 17 16 16 16 15 15 15 14 14 14 14 14 14 13 13 13 13 14 14 14 14 14 14 14
17 17 18 18 19 19 19 19 19 20 20 19 20 20 20 20 20 20 20 19 19 19 18 18 17 17 16 16 15 15 15 14 14 14 14 14 13 13 13 13 13 13 13 13 13 14 14 14 14
17 18 18 18 19 18 18 18 19 19 19 19 19 20 20 20 20 20 20 19 19 18 18 18 17 17 16 16 15 15 15 14 14 14 14 13 13 13 13 13 13 13 13 13 13 13 13 14 14
18 18 18 19 19 19 18 18 18 19 19 19 19 19 20 20 20 20 20 19 19 18 18 18 17 17 16 16 15 15 14 14 14 14 13 13 13 13 13 13 13 13 13 13 13 13 13 13 14
18 18 18 19 19 19 18 18 18 18 18 19 19 19 20 20 20 20 20 19 19 19 18 18 17 16 16 16 15 15 14 14 14 14 13 13 13 13 13 13 13 13 13 13 13 13 13 13 13
18 18 18 19 19 19 19 19 19 19 19 19 20 20 21 20 20 20 20 20 19 19 18 18 17 16 16 15 15 15 14 14 14 14 13 13 13 13 13 13 13 13 13 13 13 13 13 13 13
18 19 19 19 18 17 18 18 18 18 18 18 19 19 20 20 20 20 20 20 19 19 18 18 17 16 16 15 15 15 14 14 14 13 13 13 13 13 13 13 13 13 13 13 13 13 13 13 13
19 19 18 18 18 17 17 17 18 18 19 19 18 19 20 21 21 21 20 20 20 19 18 18 17 16 16 15 15 15 14 14 14 14 13 13 13 13 13 13 13 13 13 13 13 13 13 13 13
19 18 17 16 16 17 18 18 18 17 19 19 19 20 20 21 21 21 20 20 19 19 18 18 17 16 16 15 15 15 14 14 14 14 14 13 13 13 13 13 13 13 13 13 13 13 13 13 13
18 17 17 17 16 17 17 17 17 19 18 18 19 20 21 21 21 21 21 20 20 19 18 18 17 16 16 15 15 15 14 14 14 14 14 13 13 13 13 13 13 13 13 13 13 13 13 13 13
18 17 17 18 17 17 17 17 18 19 19 20 20 21 21 21 21 21 21 20 20 19 19 18 17 17 16 16 15 15 14 14 14 14 14 13 13 13 13 13 13 13 13 13 13 13 13 13 13
18 16 17 16 17 17 17 18 19 20 19 19 20 20 21 22 22 21 21 21 20 19 19 18 18 17 16 16 15 15 15 14 14 14 14 13 13 13 13 13 13 13 13 13 13 13 13 13 13
18 16 15 16 17 17 18 18 18 20 20 19 18 19 21 22 22 21 21 21 20 20 19 18 18 17 16 16 15 15 15 15 14 14 14 14 13 13 13 13 13 13 13 13 13 13 13 13 13
18 17 15 14 15 16 18 18 18 19 19 18 18 20 21 22 22 22 21 21 20 19 19 18 18 17 17 16 16 15 15 15 14 14 14 14 13 13 13 13 13 13 13 13 13 13 13 13 13
20 18 16 17 16 15 16 17 19 18 18 18 19 21 21 22 22 22 21 21 20 20 19 19 18 17 17 16 16 15 15 15 14 14 14 14 14 13 13 13 13 13 13 13 13 13 13 13 13
Wind_Speed
5 7 3 3 4 3 2 2 2 0 1 1 2 4 4 3 1 2 1 5 8 7 7 9 10 9 8 7 7 6 6 5 5 5 4 4 4 4 3 3 2 2 1 1 0 0 0 0 1
6 4 3 3 3 1 3 2 1 2 1 2 3 3 4 3 2 4 3 5 8 8 8 9 10 9 8 7 6 6 5 5 4 4 3 3 3 2 2 1 1 1 0 0 1 1 1 2 2
5 2 2 3 1 2 3 1 2 0 1 2 3 3 3 2 3 4 4 8 8 6 7 8 9 8 7 6 6 5 5 4 3 3 2 2 2 1 1 1 1 1 1 2 2 2 3 3 3
3 3 3 2 2 4 3 2 1 1 1 2 3 3 2 2 3 5 8 9 8 6 6 8 9 8 7 6 5 4 4 3 2 2 2 2 1 1 1 1 2 2 3 3 3 4 4 4 4
3 3 2 1 3 2 2 1 2 2 1 2 4 4 2 3 5 9 9 8 8 6 5 7 8 7 6 5 4 4 3 2 2 1 2 2 2 2 2 3 3 3 3 4 4 4 5 6 5
3 3 2 1 3 3 1 1 2 2 1 3 4 4 1 2 6 8 8 7 6 5 4 5 6 6 5 5 4 3 2 1 1 1 2 3 3 4 4 4 4 4 4 4 5 5 6 6 6
3 3 2 2 2 2 0 1 2 2 2 3 4 4 1 2 5 7 7 6 5 4 3 2 3 3 4 3 3 2 1 1 1 2 3 3 4 5 5 5 5 5 5 5 5 5 5 6 5
4 3 1 1 2 3 1 1 1 2 2 3 4 6 5 5 7 7 6 5 4 3 2 1 1 1 1 1 2 2 2 2 2 3 3 4 4 5 5 5 5 5 5 5 5 5 5 5 5
3 3 1 3 3 2 0 1 2 2 4 2 2 4 5 10 9 8 5 3 2 2 1 2 1 1 0 1 1 2 3 3 4 4 4 5 5 5 6 6 5 5 5 5 5 5 5 5 5
4 2 4 2 2 1 0 1 1 2 2 2 2 3 7 10 10 9 7 6 5 4 3 2 2 1 0 1 1 2 2 3 3 3 4 4 3 4 4 6 6 6 5 5 5 5 5 4 4
4 4 3 1 1 1 1 1 1 5 3 5 6 8 10 10 10 9 8 7 6 5 3 3 3 2 1 0 1 1 2 2 3 3 3 3 3 3 3 4 5 6 5 4 5 5 4 3 2
2 2 2 1 1 1 1 1 2 4 6 5 8 12 11 11 11 10 9 7 5 4 4 3 3 2 2 1 0 1 1 1 1 2 2 2 2 2 2 2 3 3 3 3 3 2 3 3 3
2 1 1 1 0 1 1 2 2 4 2 5 8 10 11 12 10 8 7 6 5 5 4 3 3 3 2 2 0 1 0 0 1 2 2 1 0 1 1 1 2 2 3 2 2 2 2 2 2
2 1 1 0 1 1 0 2 1 4 4 7 9 9 10 10 9 7 6 7 7 6 5 3 4 3 3 2 1 1 1 0 1 1 1 0 0 0 1 1 1 2 2 2 1 2 2 2 2
1 2 3 1 0 0 1 3 4 3 6 7 8 8 8 8 8 8 9 8 8 6 5 4 4 3 3 2 1 1 1 1 1 1 2 2 1 1 0 1 2 2 3 2 1 2 1 2 2
3 3 2 2 1 1 3 4 5 4 8 8 8 7 7 7 7 8 8 7 7 6 6 4 4 4 4 3 2 1 1 1 1 2 2 2 2 1 0 1 2 3 2 1 1 1 1 2 2
3 1 1 3 2 1 3 5 4 4 7 8 8 7 7 6 6 7 7 8 8 7 7 5 4 4 3 3 2 2 2 2 1 2 2 3 3 2 1 1 2 2 1 1 1 1 0 1 2
3 2 2 3 2 2 3 6 6 3 7 8 7 6 6 7 8 7 7 7 7 7 6 5 4 4 4 3 3 2 2 2 2 2 2 3 3 3 1 1 2 2 1 1 1 1 1 0 1
3 2 1 3 2 2 4 7 7 4 6 7 7 8 8 9 6 4 6 7 7 6 6 5 5 4 3 2 2 1 0 1 2 2 3 3 3 3 1 2 2 1 1 1 1 0 1 1 1
2 1 1 3 0 2 3 6 6 5 6 8 9 10 9 7 5 5 6 6 7 7 6 6 5 4 3 2 2 1 1 1 1 2 3 3 3 3 2 1 1 1 1 1 1 0 1 1 1
1 3 2 1 2 2 3 6 4 2 2 4 6 7 7 9 9 7 7 7 7 7 8 7 6 5 4 3 2 2 2 2 2 2 3 3 4 4 2 2 2 1 1 1 1 1 2 1 1
2 2 3 1 3 2 2 2 6 4 4 4 6 6 7 8 8 8 8 8 9 8 7 6 6 5 4 4 3 3 2 1 2 2 3 4 4 3 3 2 1 1 1 1 2 1 1 2 1
2 1 2 2 3 2 3 1 7 4 4 5 7 8 7 8 9 9 10 10 8 7 7 6 5 4 4 4 4 3 2 2 2 2 3 4 4 4 4 3 2 1 1 1 1 1 1 1 2
3 5 5 5 4 2 2 1 5 4 5 5 5 7 7 7 7 8 7 6 6 5 6 6 6 5 4 4 4 4 4 2 1 2 3 3 3 3 4 3 2 2 1 1 1 1 2 1 2
4 5 4 5 5 3 3 1 7 7 6 6 6 6 6 6 7 7 8 8 8 8 8 7 7 6 5 5 5 4 4 4 3 3 3 3 2 3 4 3 2 2 2 1 1 1 1 2 2
3 5 5 3 2 4 4 3 7 6 6 3 2 3 4 6 7 8 9 9 9 9 8 8 8 7 6 6 5 4 4 3 3 3 3 3 3 3 4 3 3 2 2 1 0 0 1 1 2
5 3 4 6 2 2 5 6 7 4 5 4 2 1 4 7 7 8 8 8 9 9 10 10 9 7 6 6 5 4 4 4 4 3 2 2 3 3 3 3 2 2 2 1 0 0 1 1 1
4 7 5 5 4 1 5 5 4 6 5 4 3 4 6 5 6 7 7 8 8 8 8 7 8 8 7 6 6 5 5 4 4 2 2 3 3 2 2 2 2 2 2 1 1 0 0 0 0
3 4 5 5 4 5 1 5 5 6 5 5 6 6 6 6 7 7 7 7 7 6 6 7 7 7 6 7 6 5 5 4 3 3 3 3 2 2 2 2 2 2 2 1 1 1 0 0 0
3 5 6 4 2 3 3 6 6 5 6 5 6 6 5 5 4 4 5 5 6 7 7 8 8 7 7 7 6 6 5 4 3 3 4 3 2 2 2 1 1 2 1 1 0 1 1 0 1
Wind_Direction
135 111 87 60 55 45 274 255 198 171 272 4 79 97 104 97 131 152 118 137 134 137 144 145 139 131 127 122 118 116 108 104 103 102 105 108 109 112 120 130 133 131 123 98 42 342 0 351 1
124 106 66 66 82 16 277 252 200 199 169 111 72 81 81 74 75 109 130 142 136 137 139 144 140 134 129 123 118 111 107 101 98 99 97 98 97 99 109 125 136 142 170 267 331 335 316 303 301
125 84 93 81 122 209 259 249 219 349 119 108 69 52 78 114 131 149 158 138 131 132 138 147 141 138 133 126 118 111 106 101 94 90 87 89 88 85 74 49 349 326 299 296 296 307 308 303 299
106 61 66 82 234 233 236 249 173 132 106 101 114 80 54 18 154 152 137 134 131 130 136 147 143 141 136 131 128 122 113 103 88 71 61 49 47 28 360 347 329 318 312 308 304 301 295 294 295
71 86 71 325 264 266 261 236 156 158 116 103 118 107 39 1 107 126 132 136 140 139 140 149 150 148 146 142 138 132 123 104 83 53 26 5 352 334 323 326 321 313 307 306 304 301 300 296 294
75 80 96 256 282 307 301 183 132 126 100 106 110 104 47 79 120 135 136 138 140 140 137 149 158 157 159 156 153 152 144 128 79 7 348 342 336 326 312 310 309 308 303 304 307 305 301 298 293
121 118 182 229 277 304 250 125 131 140 136 150 133 112 121 142 148 140 132 126 122 124 125 132 141 157 172 179 184 189 214 268 306 336 341 339 333 327 315 307 305 300 300 305 305 303 299 297 293
137 121 176 236 231 274 312 110 116 133 136 127 131 143 184 187 149 127 113 110 115 122 132 137 142 145 167 221 238 238 287 303 317 334 341 347 346 342 336 330 320 311 306 304 305 304 303 303 299
112 92 227 228 207 267 21 74 29 77 112 107 139 171 177 141 130 122 114 108 135 169 183 178 182 195 217 283 305 336 341 347 355 356 355 359 354 347 345 340 338 332 326 323 319 316 317 315 316
120 159 226 231 196 238 300 134 137 90 104 110 81 93 121 132 141 150 161 173 185 198 211 200 197 201 234 294 13 10 8 7 6 360 358 359 356 348 352 350 347 346 346 344 340 341 341 345 344
157 195 218 234 200 200 186 182 155 140 193 193 172 158 146 149 159 171 181 186 196 196 199 194 193 182 176 216 23 38 25 10 4 4 3 10 10 1 6 360 352 354 355 357 348 352 354 355 339
167 233 195 204 182 202 228 182 160 197 217 193 172 161 159 164 176 186 189 194 190 180 190 190 173 162 166 156 105 90 51 8 347 343 360 26 18 3 357 352 341 346 347 344 344 343 338 338 325
198 261 240 206 260 254 251 211 208 247 230 149 148 156 169 177 188 196 191 190 182 180 181 177 160 158 152 141 154 103 107 316 319 346 351 41 89 328 327 327 335 331 334 335 332 331 323 322 316
199 158 350 328 262 320 263 288 208 251 148 139 153 171 183 188 192 189 190 189 186 183 178 162 154 154 141 140 151 158 139 113 40 12 348 24 170 234 294 319 323 319 312 311 311 304 304 303 297
100 70 17 345 346 259 104 305 246 225 152 157 174 186 192 200 198 200 199 191 184 177 168 164 160 148 143 140 144 124 123 102 67 19 3 8 345 307 295 311 308 302 308 312 320 324 337 326 319
60 60 14 300 194 215 131 268 272 176 163 177 189 196 202 210 209 208 197 186 176 166 164 172 157 144 143 136 128 108 111 87 44 5 360 352 347 344 360 309 301 305 313 320 305 332 339 335 331
44 91 232 286 210 172 170 249 274 178 177 191 197 202 208 216 219 210 193 183 174 172 167 164 145 148 143 122 97 76 73 54 17 358 353 342 340 344 356 316 304 316 329 327 316 37 328 322 321
194 187 226 241 234 177 216 253 269 202 194 207 206 208 213 216 223 210 188 177 170 169 165 151 141 137 120 96 74 52 41 21 10 354 335 337 337 342 351 317 316 333 355 337 338 342 5 329 310
162 161 250 258 219 181 240 264 268 226 206 214 214 213 215 222 226 193 177 163 157 163 161 155 151 152 131 113 109 96 8 329 333 327 328 329 331 336 332 316 326 335 324 287 288 354 29 13 356
157 169 287 312 285 189 276 282 272 221 210 210 209 213 213 213 201 186 172 165 170 173 171 168 167 168 165 150 146 162 175 256 276 308 330 331 332 330 327 313 306 306 306 325 329 86 95 20 42
215 192 214 246 11 41 353 325 316 295 234 220 211 212 210 205 202 191 179 180 177 182 182 181 180 178 173 145 108 74 48 20 359 336 328 325 325 329 329 313 298 301 271 269 262 202 149 135 23
245 220 197 127 70 344 41 320 303 309 292 243 228 218 216 209 197 190 184 186 192 194 184 179 178 181 174 154 149 144 148 205 248 264 288 309 319 329 332 321 301 289 268 262 260 191 172 148 138
196 57 83 77 110 32 26 86 294 328 296 266 240 227 222 210 199 194 193 195 195 186 179 178 174 184 179 173 168 156 170 215 260 288 308 319 323 327 329 323 311 300 274 260 258 180 171 162 160
129 68 57 50 70 34 324 140 291 278 256 274 248 227 218 206 199 198 193 181 183 177 175 173 178 194 190 186 179 177 188 204 255 298 309 316 317 321 328 325 322 305 284 265 241 201 183 182 167
78 79 41 21 25 282 304 208 258 269 264 247 244 234 215 196 188 188 184 184 187 185 186 182 186 200 198 194 198 198 199 200 216 243 259 282 301 305 315 324 317 310 291 275 248 196 196 188 176
138 134 142 154 210 295 343 277 267 283 300 277 235 207 197 200 196 195 195 192 193 194 189 186 193 203 200 201 211 207 205 205 224 233 236 252 261 274 297 309 310 315 308 304 197 186 210 191 191
124 119 147 125 122 20 324 312 316 343 1 8 20 184 218 216 209 206 201 197 196 196 196 193 195 203 206 208 208 208 210 211 226 239 237 256 271 282 301 315 327 329 341 8 91 107 262 192 193
113 137 97 98 115 31 330 325 298 313 320 327 303 264 250 235 222 216 209 205 204 202 200 193 196 203 207 205 205 209 213 217 222 222 242 259 275 291 315 325 331 335 345 7 52 6 343 121 207
112 92 96 96 128 133 340 291 247 254 274 275 271 267 258 245 233 223 215 207 200 194 192 196 203 206 207 205 206 209 216 215 210 218 239 248 265 283 294 304 319 327 332 353 16 344 40 85 346
148 148 143 129 158 141 155 271 280 267 277 269 273 277 269 254 243 231 216 198 194 197 197 200 205 208 211 206 203 209 211 203 209 229 242 240 247 261 271 290 314 316 328 340 314 314 349 207 265
Height
1497 1497 1499 1501 1503 1509 1509 1502 1498 1498 1498 1497 1497 1497 1498 1501 1504 1509 1506 1504 1506 1508 1510 1512 1513 1514 1516 1517 1518 1519 1519 1520 1520 1521 1521 1521 1522 1522 1522 1523 1523 1523 1523 1523 1523 1523 1523 1523 1523
1497 1498 1501 1501 1507 1515 1510 1500 1499 1497 1497 1497 1497 1498 1499 1501 1502 1503 1504 1505 1507 1509 1511 1512 1514 1515 1516 1517 1518 1519 1519 1520 1520 1520 1521 1521 1521 1521 1522 1522 1522 1522 1522 1522 1523 1523 1523 1523 1523
1497 1499 1501 1503 1508 1513 1506 1498 1497 1496 1497 1497 1499 1500 1501 1502 1503 1504 1505 1506 1508 1510 1512 1513 1515 1516 1517 1517 1518 1519 1519 1520 1520 1520 1520 1520 1520 1521 1521 1521 1521 1521 1521 1521 1521 1522 1522 1522 1522
1498 1500 1502 1506 1507 1502 1499 1497 1496 1497 1497 1497 1499 1501 1502 1503 1504 1505 1506 1508 1510 1511 1513 1514 1515 1516 1517 1518 1518 1519 1519 1519 1519 1519 1519 1520 1520 1520 1520 1520 1520 1520 1520 1520 1520 1520 1521 1521 1521
1498 1500 1504 1507 1504 1498 1496 1495 1496 1497 1497 1498 1499 1501 1503 1504 1505 1506 1507 1509 1511 1512 1514 1515 1516 1517 1518 1518 1519 1519 1519 1519 1519 1519 1519 1519 1519 1519 1519 1519 1518 1518 1518 1518 1519 1519 1519 1520 1520
1499 1500 1508 1511 1503 1498 1496 1495 1496 1497 1498 1499 1499 1501 1503 1504 1505 1507 1509 1511 1512 1514 1515 1516 1517 1517 1518 1518 1519 1519 1519 1519 1519 1519 1518 1518 1518 1518 1518 1518 1517 1517 1517 1517 1517 1517 1517 1518 1519
1499 1502 1506 1506 1504 1499 1496 1495 1496 1497 1498 1499 1500 1502 1504 1505 1507 1508 1510 1512 1514 1515 1516 1516 1517 1518 1518 1519 1519 1519 1519 1519 1519 1518 1518 1518 1517 1517 1517 1516 1516 1516 1516 1516 1516 1516 1516 1516 1517
1497 1502 1504 1506 1504 1501 1496 1495 1496 1497 1498 1500 1500 1501 1503 1505 1507 1509 1511 1513 1514 1516 1516 1517 1517 1518 1518 1519 1519 1519 1519 1519 1518 1518 1518 1517 1517 1516 1516 1515 1515 1514 1514 1514 1514 1514 1514 1515 1515
1497 1504 1507 1504 1503 1499 1496 1496 1497 1498 1498 1500 1500 1501 1502 1505 1507 1509 1511 1513 1514 1516 1517 1517 1518 1518 1519 1519 1519 1519 1518 1518 1518 1517 1517 1516 1516 1516 1515 1514 1514 1513 1513 1513 1513 1513 1513 1513 1513
1497 1504 1502 1498 1498 1497 1497 1497 1497 1498 1499 1500 1500 1501 1503 1505 1507 1509 1511 1512 1514 1515 1517 1517 1518 1518 1518 1519 1519 1518 1518 1518 1517 1517 1516 1516 1515 1515 1514 1513 1513 1512 1512 1511 1511 1511 1511 1511 1511
1495 1499 1496 1496 1496 1496 1496 1497 1497 1498 1499 1499 1499 1501 1503 1505 1507 1509 1511 1512 1514 1515 1516 1517 1518 1518 1518 1518 1518 1518 1518 1517 1517 1516 1515 1515 1514 1514 1513 1512 1511 1511 1510 1510 1509 1509 1509 1509 1509
1495 1495 1495 1495 1495 1496 1496 1496 1497 1496 1497 1498 1499 1500 1503 1505 1507 1508 1510 1512 1514 1515 1516 1517 1517 1518 1518 1518 1518 1517 1517 1517 1516 1515 1514 1514 1513 1512 1512 1511 1510 1509 1508 1508 1508 1507 1507 1508 1508
1495 1495 1494 1494 1494 1495 1496 1496 1496 1495 1496 1497 1499 1501 1502 1504 1506 1509 1510 1512 1514 1515 1516 1517 1517 1517 1517 1517 1517 1517 1516 1516 1515 1514 1513 1513 1512 1511 1510 1509 1509 1508 1507 1506 1506 1506 1506 1506 1506
1494 1494 1494 1494 1495 1495 1496 1495 1496 1494 1495 1497 1498 1500 1502 1504 1506 1508 1510 1511 1513 1514 1515 1516 1517 1517 1517 1517 1516 1516 1516 1515 1514 1514 1513 1512 1511 1510 1509 1508 1507 1506 1505 1505 1504 1504 1504 1504 1504
1493 1495 1495 1495 1494 1495 1496 1497 1494 1493 1495 1497 1498 1500 1502 1504 1506 1508 1509 1511 1512 1514 1515 1516 1516 1516 1516 1516 1516 1515 1515 1514 1514 1513 1512 1511 1510 1508 1507 1506 1505 1505 1504 1503 1503 1503 1502 1502 1502
1494 1498 1502 1497 1495 1495 1499 1502 1493 1493 1495 1496 1498 1500 1502 1503 1505 1507 1509 1510 1512 1513 1514 1515 1515 1515 1515 1515 1515 1515 1514 1514 1513 1512 1511 1510 1509 1507 1506 1505 1504 1503 1502 1502 1501 1501 1501 1501 1501
1500 1506 1504 1499 1494 1495 1498 1499 1492 1492 1494 1495 1496 1498 1500 1502 1504 1506 1508 1510 1511 1513 1514 1514 1515 1515 1515 1515 1515 1514 1514 1513 1513 1512 1510 1509 1508 1506 1505 1504 1503 1502 1501 1500 1500 1500 1500 1500 1500
1505 1504 1503 1501 1495 1496 1498 1497 1491 1491 1493 1493 1495 1497 1499 1501 1502 1504 1506 1509 1510 1512 1513 1514 1514 1514 1514 1514 1514 1514 1513 1513 1512 1511 1510 1508 1507 1505 1504 1503 1502 1501 1500 1499 1499 1498 1499 1499 1499
1497 1501 1502 1499 1494 1496 1497 1496 1491 1490 1491 1492 1494 1495 1497 1498 1501 1503 1505 1507 1509 1511 1512 1512 1513 1513 1513 1513 1513 1513 1513 1512 1511 1510 1509 1508 1506 1504 1503 1502 1501 1500 1499 1498 1498 1497 1497 1497 1498
1497 1501 1501 1497 1494 1496 1498 1496 1490 1489 1489 1489 1491 1492 1494 1497 1499 1501 1503 1505 1507 1509 1510 1511 1512 1513 1513 1513 1513 1513 1512 1511 1511 1510 1509 1507 1506 1504 1502 1501 1500 1499 1498 1497 1497 1497 1497 1497 1497
1498 1501 1501 1500 1496 1495 1498 1498 1492 1488 1488 1488 1489 1491 1492 1495 1497 1499 1501 1503 1506 1508 1509 1510 1511 1512 1512 1512 1512 1512 1511 1511 1510 1509 1508 1507 1505 1504 1502 1501 1500 1498 1497 1497 1496 1496 1496 1496 1497
1500 1494 1495 1497 1503 1509 1504 1514 1497 1491 1489 1487 1488 1489 1490 1492 1495 1497 1499 1501 1504 1506 1508 1510 1511 1511 1512 1512 1511 1511 1510 1510 1509 1508 1507 1506 1505 1503 1502 1500 1499 1498 1496 1496 1495 1495 1495 1496 1496
1495 1493 1495 1498 1503 1510 1508 1514 1505 1493 1490 1487 1486 1486 1488 1490 1492 1494 1497 1499 1502 1505 1507 1508 1510 1510 1511 1511 1511 1510 1510 1509 1509 1508 1507 1506 1504 1503 1502 1500 1499 1497 1496 1495 1495 1495 1495 1495 1496
1492 1496 1500 1506 1511 1519 1512 1515 1511 1498 1490 1486 1483 1484 1486 1488 1490 1493 1496 1498 1501 1503 1505 1507 1508 1509 1509 1510 1510 1509 1509 1509 1508 1507 1506 1505 1504 1503 1501 1500 1498 1497 1495 1494 1494 1494 1494 1494 1495
1495 1507 1519 1521 1527 1523 1512 1513 1509 1490 1485 1484 1482 1482 1484 1486 1488 1491 1493 1496 1498 1500 1503 1505 1506 1507 1508 1508 1509 1509 1509 1508 1507 1507 1506 1505 1504 1503 1501 1500 1498 1497 1495 1494 1494 1493 1493 1493 1494
1498 1504 1520 1528 1529 1525 1514 1514 1500 1486 1483 1481 1481 1481 1483 1485 1487 1489 1491 1494 1496 1498 1501 1503 1504 1505 1507 1507 1507 1508 1508 1507 1507 1506 1505 1505 1504 1502 1501 1500 1498 1497 1495 1494 1493 1493 1493 1493 1493
1499 1505 1506 1518 1522 1526 1519 1508 1494 1484 1483 1482 1481 1482 1482 1484 1486 1488 1490 1492 1494 1497 1499 1501 1502 1504 1505 1506 1506 1506 1506 1506 1506 1505 1505 1504 1503 1502 1501 1500 1498 1497 1495 1494 1493 1493 1492 1492 1492
1493 1501 1511 1519 1528 1532 1521 1514 1509 1492 1487 1484 1483 1482 1482 1483 1485 1486 1488 1490 1493 1495 1497 1499 1501 1502 1503 1504 1504 1505 1505 1505 1505 1504 1504 1503 1503 1502 1501 1500 1498 1497 1495 1494 1493 1493 1492 1492 1492
1498 1503 1511 1520 1521 1531 1530 1521 1496 1492 1487 1485 1483 1482 1482 1482 1483 1485 1486 1488 1491 1493 1495 1497 1499 1500 1501 1502 1503 1503 1503 1503 1503 1503 1503 1503 1502 1502 1501 1500 1498 1497 1496 1495 1494 1493 1492 1492 1492
1490 1497 1506 1515 1522 1526 1529 1521 1489 1488 1485 1484 1482 1481 1481 1482 1482 1483 1485 1487 1488 1490 1492 1494 1496 1497 1499 1500 1501 1501 1502 1502 1502 1502 1502 1501 1501 1501 1500 1499 1498 1497 1496 1495 1494 1493 1492 1492 1491